This demonstration page uses our WeatherBlox Daily Observations layout. Learn more.

Left ArrowRight Arrow

39.29038, -76.61219

Hourly Observations for March 12, 2018

Temp ( °F °C ) Dew Point ( °F °C ) Humidity (%) Winds ( mph kmh ) Pressure ( in mb ) Visibility ( mi km ) Precip ( " mm )
12:54 am 00:54 undefined 40 4.4 21 -6.1 47 47 undefined N/A 30.05 1018 N/A 0.00 0.00
1:54 am 01:54 undefined 40 4.4 21 -6.1 47 47 undefined N/A 30.04 1017 N/A 0.00 0.00
2:54 am 02:54 undefined 39 3.9 21 -6.1 48 48 undefined N/A 30.02 1017 N/A 0.00 0.00
3:54 am 03:54 undefined 37 2.8 21 -6.1 52 52 undefined N/A 29.98 1015 N/A 0.00 0.00
4:54 am 04:54 undefined 36 2.2 21 -6.1 55 55 undefined N/A 29.98 1015 N/A 0.00 0.00
5:54 am 05:54 undefined 35 1.7 21 -6.1 57 57 undefined N/A 29.98 1015 N/A 0.00 0.00
6:54 am 06:54 undefined 34 1.1 21 -6.1 59 59 undefined N/A 29.98 1015 N/A 0.00 0.00
7:54 am 07:54 undefined 35 1.7 21 -6.1 57 57 undefined N/A 29.98 1015 N/A 0.00 0.00
8:54 am 08:54 undefined 35 1.7 22 -5.6 59 59 undefined N/A 29.97 1015 N/A 0.00 0.00
9:54 am 09:54 undefined 37 2.8 23 -5 57 57 undefined N/A 29.95 1014 N/A 0.00 0.00
10:54 am 10:54 undefined 38 3.3 24 -4.4 57 57 undefined N/A 29.95 1014 N/A 0.00 0.00
11:54 am 11:54 undefined 40 4.4 24 -4.4 53 53 undefined N/A 29.93 1014 N/A 0.00 0.00
12:54 pm 12:54 undefined 41 5 24 -4.4 51 51 undefined N/A 29.91 1013 N/A 0.00 0.00
1:54 pm 13:54 undefined 43 6.1 24 -4.4 47 47 undefined N/A 29.89 1012 N/A 0.00 0.00
2:54 pm 14:54 undefined 44 6.7 24 -4.4 45 45 undefined N/A 29.86 1011 N/A 0.00 0.00
3:54 pm 15:54 undefined 44 6.7 23 -5 43 43 undefined N/A 29.82 1010 N/A 0.00 0.00
4:54 pm 16:54 undefined 44 6.7 26 -3.3 49 49 undefined N/A 29.81 1010 N/A 0.00 0.00
5:54 pm 17:54 undefined 43 6.1 27 -2.8 53 53 undefined N/A 29.80 1009 N/A 0.00 0.00
6:54 pm 18:54 undefined 41 5 27 -2.8 57 57 undefined N/A 29.81 1010 N/A 0.00 0.00
7:54 pm 19:54 undefined 39 3.9 31 -0.6 73 73 undefined N/A 29.82 1010 N/A 0.00 0.00
8:54 pm 20:54 undefined 38 3.3 31 -0.6 76 76 undefined N/A 29.83 1010 N/A 0.00 0.00
9:54 pm 21:54 undefined 37 2.8 33 0.6 86 86 undefined N/A 29.83 1010 N/A 0.01 0.25
10:54 pm 22:54 undefined 36 2.2 32 0 86 86 undefined N/A 29.82 1010 N/A 0.00 0.00
11:54 pm 23:54 undefined 36 2.2 32 0 86 86 undefined N/A 29.79 1009 N/A 0.00 0.00

Powered by AerisWeather